Year,Month,Day,Hour,Minute,Value (Times are PST for temperature in C)
2016,08,25,00,00,17.80
2016,08,25,00,01,17.80
2016,08,25,00,02,17.80
2016,08,25,00,03,17.80
2016,08,25,00,04,17.70
2016,08,25,00,05,17.70
2016,08,25,00,06,17.70
2016,08,25,00,07,17.60
2016,08,25,00,08,17.60
2016,08,25,00,09,17.60
2016,08,25,00,10,17.60
2016,08,25,00,11,17.60
2016,08,25,00,12,17.60
2016,08,25,00,13,17.60
2016,08,25,00,14,17.60
2016,08,25,00,15,17.60
2016,08,25,00,16,17.60
2016,08,25,00,17,17.60
2016,08,25,00,18,17.60
2016,08,25,00,19,17.60
2016,08,25,00,20,17.60
2016,08,25,00,21,17.60
2016,08,25,00,22,17.60
2016,08,25,00,23,17.60
2016,08,25,00,24,17.60
2016,08,25,00,25,17.60
2016,08,25,00,26,17.60
2016,08,25,00,27,17.60
2016,08,25,00,28,17.70
2016,08,25,00,29,17.70
2016,08,25,00,30,17.70
2016,08,25,00,31,17.70
2016,08,25,00,32,17.60
2016,08,25,00,33,17.60
2016,08,25,00,34,17.60
2016,08,25,00,35,17.60
2016,08,25,00,36,17.60
2016,08,25,00,37,17.60
2016,08,25,00,38,17.60
2016,08,25,00,39,17.60
2016,08,25,00,40,17.60
2016,08,25,00,41,17.50
2016,08,25,00,42,17.50
2016,08,25,00,43,17.50
2016,08,25,00,44,17.50
2016,08,25,00,45,17.50
2016,08,25,00,46,17.40
2016,08,25,00,47,17.40
2016,08,25,00,48,17.40
2016,08,25,00,49,17.30
2016,08,25,00,50,17.30
2016,08,25,00,51,17.30
2016,08,25,00,52,17.30
2016,08,25,00,53,17.30
2016,08,25,00,54,17.30
2016,08,25,00,55,17.30
2016,08,25,00,56,17.20
2016,08,25,00,57,17.20
2016,08,25,00,58,17.20
2016,08,25,00,59,17.20
2016,08,25,01,00,17.20
2016,08,25,01,01,17.10
2016,08,25,01,02,17.10
2016,08,25,01,03,17.10
2016,08,25,01,04,17.10
2016,08,25,01,05,17.10
2016,08,25,01,06,17.00
2016,08,25,01,07,17.00
2016,08,25,01,08,17.00
2016,08,25,01,09,17.00
2016,08,25,01,10,17.00
2016,08,25,01,11,17.00
2016,08,25,01,12,16.90
2016,08,25,01,13,16.90
2016,08,25,01,14,16.90
2016,08,25,01,15,16.90
2016,08,25,01,16,16.90
2016,08,25,01,17,16.90
2016,08,25,01,18,16.90
2016,08,25,01,19,16.90
2016,08,25,01,20,16.90
2016,08,25,01,21,16.90
2016,08,25,01,22,16.90
2016,08,25,01,23,16.90
2016,08,25,01,24,16.80
2016,08,25,01,25,16.80
2016,08,25,01,26,16.80
2016,08,25,01,27,16.80
2016,08,25,01,28,16.80
2016,08,25,01,29,16.80
2016,08,25,01,30,16.80
2016,08,25,01,31,16.80
2016,08,25,01,32,16.70
2016,08,25,01,33,16.70
2016,08,25,01,34,16.70
2016,08,25,01,35,16.70
2016,08,25,01,36,16.70
2016,08,25,01,37,16.70
2016,08,25,01,38,16.70
2016,08,25,01,39,16.70
2016,08,25,01,40,16.60
2016,08,25,01,41,16.60
2016,08,25,01,42,16.60
2016,08,25,01,43,16.50
2016,08,25,01,44,16.40
2016,08,25,01,45,16.40
2016,08,25,01,46,16.40
2016,08,25,01,47,16.40
2016,08,25,01,48,16.40
2016,08,25,01,49,16.40
2016,08,25,01,50,16.40
2016,08,25,01,51,16.40
2016,08,25,01,52,16.40
2016,08,25,01,53,16.40
2016,08,25,01,54,16.40
2016,08,25,01,55,16.40
2016,08,25,01,56,16.40
2016,08,25,01,57,16.40
2016,08,25,01,58,16.40
2016,08,25,01,59,16.40
2016,08,25,02,00,16.40
2016,08,25,02,01,16.40
2016,08,25,02,02,16.40
2016,08,25,02,03,16.40
2016,08,25,02,04,16.40
2016,08,25,02,05,16.40
2016,08,25,02,06,16.40
2016,08,25,02,07,16.40
2016,08,25,02,08,16.30
2016,08,25,02,09,16.30
2016,08,25,02,10,16.30
2016,08,25,02,11,16.20
2016,08,25,02,12,16.20
2016,08,25,02,13,16.20
2016,08,25,02,14,16.10
2016,08,25,02,15,16.10
2016,08,25,02,16,16.10
2016,08,25,02,17,16.10
2016,08,25,02,18,16.10
2016,08,25,02,19,16.10
2016,08,25,02,20,16.10
2016,08,25,02,21,16.10
2016,08,25,02,22,16.10
2016,08,25,02,23,16.10
2016,08,25,02,24,16.10
2016,08,25,02,25,16.10
2016,08,25,02,26,16.10
2016,08,25,02,27,16.10
2016,08,25,02,28,16.10
2016,08,25,02,29,16.10
2016,08,25,02,30,16.00
2016,08,25,02,31,15.90
2016,08,25,02,32,15.90
2016,08,25,02,33,15.90
2016,08,25,02,34,15.90
2016,08,25,02,35,15.90
2016,08,25,02,36,15.90
2016,08,25,02,37,15.90
2016,08,25,02,38,15.90
2016,08,25,02,39,15.90
2016,08,25,02,40,15.90
2016,08,25,02,41,15.80
2016,08,25,02,42,15.80
2016,08,25,02,43,15.80
2016,08,25,02,44,15.80
2016,08,25,02,45,15.90
2016,08,25,02,46,15.80
2016,08,25,02,47,15.90
2016,08,25,02,48,15.90
2016,08,25,02,49,15.80
2016,08,25,02,50,15.80
2016,08,25,02,51,15.80
2016,08,25,02,52,15.80
2016,08,25,02,53,15.80
2016,08,25,02,54,15.80
2016,08,25,02,55,15.80
2016,08,25,02,56,15.80
2016,08,25,02,57,15.80
2016,08,25,02,58,15.80
2016,08,25,02,59,15.80
2016,08,25,03,00,15.80
2016,08,25,03,01,15.80
2016,08,25,03,02,15.80
2016,08,25,03,03,15.70
2016,08,25,03,04,15.70
2016,08,25,03,05,15.60
2016,08,25,03,06,15.60
2016,08,25,03,07,15.50
2016,08,25,03,08,15.50
2016,08,25,03,09,15.50
2016,08,25,03,10,15.50
2016,08,25,03,11,15.50
2016,08,25,03,12,15.50
2016,08,25,03,13,15.50
2016,08,25,03,14,15.50
2016,08,25,03,15,15.50
2016,08,25,03,16,15.50
2016,08,25,03,17,15.50
2016,08,25,03,18,15.40
2016,08,25,03,19,15.40
2016,08,25,03,20,15.40
2016,08,25,03,21,15.40
2016,08,25,03,22,15.40
2016,08,25,03,23,15.40
2016,08,25,03,24,15.40
2016,08,25,03,25,15.40
2016,08,25,03,26,15.40
2016,08,25,03,27,15.40
2016,08,25,03,28,15.40
2016,08,25,03,29,15.40
2016,08,25,03,30,15.40
2016,08,25,03,31,15.40
2016,08,25,03,32,15.40
2016,08,25,03,33,15.40
2016,08,25,03,34,15.40
2016,08,25,03,35,15.40
2016,08,25,03,36,15.40
2016,08,25,03,37,15.40
2016,08,25,03,38,15.40
2016,08,25,03,39,15.50
2016,08,25,03,40,15.50
2016,08,25,03,41,15.50
2016,08,25,03,42,15.50
2016,08,25,03,43,15.50
2016,08,25,03,44,15.50
2016,08,25,03,45,15.50
2016,08,25,03,46,15.50
2016,08,25,03,47,15.50
2016,08,25,03,48,15.50
2016,08,25,03,49,15.50
2016,08,25,03,50,15.40
2016,08,25,03,51,15.40
2016,08,25,03,52,15.40
2016,08,25,03,53,15.40
2016,08,25,03,54,15.40
2016,08,25,03,55,15.40
2016,08,25,03,56,15.40
2016,08,25,03,57,15.30
2016,08,25,03,58,15.30
2016,08,25,03,59,15.30
2016,08,25,04,00,15.30
2016,08,25,04,01,15.30
2016,08,25,04,02,15.30
2016,08,25,04,03,15.30
2016,08,25,04,04,15.30
2016,08,25,04,05,15.30
2016,08,25,04,06,15.30
2016,08,25,04,07,15.30
2016,08,25,04,08,15.30
2016,08,25,04,09,15.30
2016,08,25,04,10,15.30
2016,08,25,04,11,15.30
2016,08,25,04,12,15.30
2016,08,25,04,13,15.30
2016,08,25,04,14,15.30
2016,08,25,04,15,15.30
2016,08,25,04,16,15.30
2016,08,25,04,17,15.30
2016,08,25,04,18,15.30
2016,08,25,04,19,15.30
2016,08,25,04,20,15.30
2016,08,25,04,21,15.30
2016,08,25,04,22,15.30
2016,08,25,04,23,15.30
2016,08,25,04,24,15.30
2016,08,25,04,25,15.30
2016,08,25,04,26,15.30
2016,08,25,04,27,15.30
2016,08,25,04,28,15.30
2016,08,25,04,29,15.30
2016,08,25,04,30,15.30
2016,08,25,04,31,15.30
2016,08,25,04,32,15.30
2016,08,25,04,33,15.20
2016,08,25,04,34,15.20
2016,08,25,04,35,15.20
2016,08,25,04,36,15.20
2016,08,25,04,37,15.20
2016,08,25,04,38,15.20
2016,08,25,04,39,15.20
2016,08,25,04,40,15.20
2016,08,25,04,41,15.20
2016,08,25,04,42,15.20
2016,08,25,04,43,15.20
2016,08,25,04,44,15.20
2016,08,25,04,45,15.20
2016,08,25,04,46,15.20
2016,08,25,04,47,15.10
2016,08,25,04,48,15.10
2016,08,25,04,49,15.10
2016,08,25,04,50,15.10
2016,08,25,04,51,15.00
2016,08,25,04,52,15.00
2016,08,25,04,53,15.00
2016,08,25,04,54,15.00
2016,08,25,04,55,14.90
2016,08,25,04,56,14.90
2016,08,25,04,57,14.90
2016,08,25,04,58,14.90
2016,08,25,04,59,14.80
2016,08,25,05,00,14.80
2016,08,25,05,01,14.80
2016,08,25,05,02,14.80
2016,08,25,05,03,14.80
2016,08,25,05,04,14.80
2016,08,25,05,05,14.70
2016,08,25,05,06,14.70
2016,08,25,05,07,14.70
2016,08,25,05,08,14.70
2016,08,25,05,09,14.70
2016,08,25,05,10,14.70
2016,08,25,05,11,14.60
2016,08,25,05,12,14.60
2016,08,25,05,13,14.60
2016,08,25,05,14,14.60
2016,08,25,05,15,14.60
2016,08,25,05,16,14.60
2016,08,25,05,17,14.60
2016,08,25,05,18,14.60
2016,08,25,05,19,14.60
2016,08,25,05,20,14.60
2016,08,25,05,21,14.60
2016,08,25,05,22,14.60
2016,08,25,05,23,14.60
2016,08,25,05,24,14.60
2016,08,25,05,25,14.50
2016,08,25,05,26,14.50
2016,08,25,05,27,14.50
2016,08,25,05,28,14.50
2016,08,25,05,29,14.50
2016,08,25,05,30,14.50
2016,08,25,05,31,14.50
2016,08,25,05,32,14.50
2016,08,25,05,33,14.50
2016,08,25,05,34,14.50
2016,08,25,05,35,14.50
2016,08,25,05,36,14.50
2016,08,25,05,37,14.50
2016,08,25,05,38,14.50
2016,08,25,05,39,14.50
2016,08,25,05,40,14.50
2016,08,25,05,41,14.50
2016,08,25,05,42,14.50
2016,08,25,05,43,14.50
2016,08,25,05,44,14.40
2016,08,25,05,45,14.40
2016,08,25,05,46,14.40
2016,08,25,05,47,14.40
2016,08,25,05,48,14.30
2016,08,25,05,49,14.30
2016,08,25,05,50,14.30
2016,08,25,05,51,14.20
2016,08,25,05,52,14.20
2016,08,25,05,53,14.20
2016,08,25,05,54,14.20
2016,08,25,05,55,14.20
2016,08,25,05,56,14.20
2016,08,25,05,57,14.20
2016,08,25,05,58,14.20
2016,08,25,05,59,14.20
2016,08,25,06,00,14.20
2016,08,25,06,01,14.20
2016,08,25,06,02,14.20
2016,08,25,06,03,14.20
2016,08,25,06,04,14.20
2016,08,25,06,05,14.20
2016,08,25,06,06,14.20
2016,08,25,06,07,14.10
2016,08,25,06,08,14.10
2016,08,25,06,09,14.10
2016,08,25,06,10,14.10
2016,08,25,06,11,14.10
2016,08,25,06,12,14.10
2016,08,25,06,13,14.10
2016,08,25,06,14,14.10
2016,08,25,06,15,14.10
2016,08,25,06,16,14.10
2016,08,25,06,17,14.10
2016,08,25,06,18,14.10
2016,08,25,06,19,14.00
2016,08,25,06,20,14.00
2016,08,25,06,21,14.00
2016,08,25,06,22,14.00
2016,08,25,06,23,14.00
2016,08,25,06,24,14.00
2016,08,25,06,25,14.00
2016,08,25,06,26,13.90
2016,08,25,06,27,13.90
2016,08,25,06,28,13.90
2016,08,25,06,29,13.90
2016,08,25,06,30,13.90
2016,08,25,06,31,13.90
2016,08,25,06,32,13.90
2016,08,25,06,33,13.90
2016,08,25,06,34,13.90
2016,08,25,06,35,13.90
2016,08,25,06,36,14.00
2016,08,25,06,37,14.00
2016,08,25,06,38,14.00
2016,08,25,06,39,14.00
2016,08,25,06,40,14.00
2016,08,25,06,41,14.00
2016,08,25,06,42,14.00
2016,08,25,06,43,14.00
2016,08,25,06,44,14.10
2016,08,25,06,45,14.10
2016,08,25,06,46,14.20
2016,08,25,06,47,14.20
2016,08,25,06,48,14.20
2016,08,25,06,49,14.20
2016,08,25,06,50,14.20
2016,08,25,06,51,14.20
2016,08,25,06,52,14.20
2016,08,25,06,53,14.20
2016,08,25,06,54,14.20
2016,08,25,06,55,14.20
2016,08,25,06,56,14.20
2016,08,25,06,57,14.20
2016,08,25,06,58,14.20
2016,08,25,06,59,14.20
2016,08,25,07,00,14.30
2016,08,25,07,01,14.30
2016,08,25,07,02,14.30
2016,08,25,07,03,14.30
2016,08,25,07,04,14.40
2016,08,25,07,05,14.40
2016,08,25,07,06,14.40
2016,08,25,07,07,14.40
2016,08,25,07,08,14.40
2016,08,25,07,09,14.40
2016,08,25,07,10,14.40
2016,08,25,07,11,14.50
2016,08,25,07,12,14.50
2016,08,25,07,13,14.50
2016,08,25,07,14,14.60
2016,08,25,07,15,14.60
2016,08,25,07,16,14.60
2016,08,25,07,17,14.70
2016,08,25,07,18,14.80
2016,08,25,07,19,14.90
2016,08,25,07,20,15.10
2016,08,25,07,21,15.20
2016,08,25,07,22,15.30
2016,08,25,07,23,15.30
2016,08,25,07,24,15.40
2016,08,25,07,25,15.50
2016,08,25,07,26,15.50
2016,08,25,07,27,15.60
2016,08,25,07,28,15.60
2016,08,25,07,29,15.70
2016,08,25,07,30,15.80
2016,08,25,07,31,15.80
2016,08,25,07,32,15.90
2016,08,25,07,33,15.90
2016,08,25,07,34,16.00
2016,08,25,07,35,16.10
2016,08,25,07,36,16.10
2016,08,25,07,37,16.10
2016,08,25,07,38,16.10
2016,08,25,07,39,16.20
2016,08,25,07,40,16.20
2016,08,25,07,41,16.30
2016,08,25,07,42,16.30
2016,08,25,07,43,16.40
2016,08,25,07,44,16.40
2016,08,25,07,45,16.40
2016,08,25,07,46,16.50
2016,08,25,07,47,16.60
2016,08,25,07,48,16.60
2016,08,25,07,49,16.70
2016,08,25,07,50,16.80
2016,08,25,07,51,16.90
2016,08,25,07,52,17.10
2016,08,25,07,53,17.30
2016,08,25,07,54,17.50
2016,08,25,07,55,17.70
2016,08,25,07,56,17.90
2016,08,25,07,57,18.00
2016,08,25,07,58,18.10
2016,08,25,07,59,18.20
2016,08,25,08,00,18.30
2016,08,25,08,01,18.40
2016,08,25,08,02,18.50
2016,08,25,08,03,18.60
2016,08,25,08,04,18.70
2016,08,25,08,05,18.80
2016,08,25,08,06,18.90
2016,08,25,08,07,19.00
2016,08,25,08,08,19.20
2016,08,25,08,09,19.40
2016,08,25,08,10,19.60
2016,08,25,08,11,19.70
2016,08,25,08,12,19.90
2016,08,25,08,13,20.00
2016,08,25,08,14,20.10
2016,08,25,08,15,20.20
2016,08,25,08,16,20.30
2016,08,25,08,17,20.40
2016,08,25,08,18,20.40
2016,08,25,08,19,20.40
2016,08,25,08,20,20.40
2016,08,25,08,21,20.40
2016,08,25,08,22,20.40
2016,08,25,08,23,20.30
2016,08,25,08,24,20.30
2016,08,25,08,25,20.30
2016,08,25,08,26,20.30
2016,08,25,08,27,20.30
2016,08,25,08,28,20.30
2016,08,25,08,29,20.30
2016,08,25,08,30,20.30
2016,08,25,08,31,20.30
2016,08,25,08,32,20.30
2016,08,25,08,33,20.30
2016,08,25,08,34,20.30
2016,08,25,08,35,20.30
2016,08,25,08,36,20.30
2016,08,25,08,37,20.30
2016,08,25,08,38,20.20
2016,08,25,08,39,20.20
2016,08,25,08,40,20.20
2016,08,25,08,41,20.20
2016,08,25,08,42,20.20
2016,08,25,08,43,20.20
2016,08,25,08,44,20.20
2016,08,25,08,45,20.20
2016,08,25,08,46,20.20
2016,08,25,08,47,20.20
2016,08,25,08,48,20.20
2016,08,25,08,49,20.20
2016,08,25,08,50,20.20
2016,08,25,08,51,20.20
2016,08,25,08,52,20.20
2016,08,25,08,53,20.20
2016,08,25,08,54,20.20
2016,08,25,08,55,20.20
2016,08,25,08,56,20.30
2016,08,25,08,57,20.30
2016,08,25,08,58,20.40
2016,08,25,08,59,20.40
2016,08,25,09,00,20.50
2016,08,25,09,01,20.50
2016,08,25,09,02,20.60
2016,08,25,09,03,20.70
2016,08,25,09,04,20.70
2016,08,25,09,05,20.80
2016,08,25,09,06,20.90
2016,08,25,09,07,21.00
2016,08,25,09,08,21.00
2016,08,25,09,09,21.10
2016,08,25,09,10,21.10
2016,08,25,09,11,21.20
2016,08,25,09,12,21.30
2016,08,25,09,13,21.30
2016,08,25,09,14,21.30
2016,08,25,09,15,21.40
2016,08,25,09,16,21.50
2016,08,25,09,17,21.60
2016,08,25,09,18,21.60
2016,08,25,09,19,21.70
2016,08,25,09,20,21.80
2016,08,25,09,21,21.80
2016,08,25,09,22,21.90
2016,08,25,09,23,22.00
2016,08,25,09,24,22.00
2016,08,25,09,25,22.10
2016,08,25,09,26,22.20
2016,08,25,09,27,22.30
2016,08,25,09,28,22.30
2016,08,25,09,29,22.40
2016,08,25,09,30,22.40
2016,08,25,09,31,22.50
2016,08,25,09,32,22.50
2016,08,25,09,33,22.60
2016,08,25,09,34,22.60
2016,08,25,09,35,22.70
2016,08,25,09,36,22.90
2016,08,25,09,37,22.90
2016,08,25,09,38,22.90
2016,08,25,09,39,22.90
2016,08,25,09,40,22.90
2016,08,25,09,41,22.90
2016,08,25,09,42,22.90
2016,08,25,09,43,22.90
2016,08,25,09,44,23.00
2016,08,25,09,45,23.10
2016,08,25,09,46,23.20
2016,08,25,09,47,23.20
2016,08,25,09,48,23.20
2016,08,25,09,49,23.20
2016,08,25,09,50,23.20
2016,08,25,09,51,23.30
2016,08,25,09,52,23.40
2016,08,25,09,53,23.50
2016,08,25,09,54,23.70
2016,08,25,09,55,23.80
2016,08,25,09,56,23.90
2016,08,25,09,57,24.00
2016,08,25,09,58,24.10
2016,08,25,09,59,24.10
2016,08,25,10,00,24.20
2016,08,25,10,01,24.10
2016,08,25,10,02,24.10
2016,08,25,10,03,24.10
2016,08,25,10,04,24.10
2016,08,25,10,05,24.10
2016,08,25,10,06,24.00
2016,08,25,10,07,23.80
2016,08,25,10,08,23.70
2016,08,25,10,09,23.70
2016,08,25,10,10,23.70
2016,08,25,10,11,23.70
2016,08,25,10,12,23.70
2016,08,25,10,13,23.70
2016,08,25,10,14,23.60
2016,08,25,10,15,23.60
2016,08,25,10,16,23.70
2016,08,25,10,17,23.70
2016,08,25,10,18,23.70
2016,08,25,10,19,23.70
2016,08,25,10,20,23.60
2016,08,25,10,21,23.40
2016,08,25,10,22,23.40
2016,08,25,10,23,23.30
2016,08,25,10,24,23.40
2016,08,25,10,25,23.50
2016,08,25,10,26,23.60
2016,08,25,10,27,23.40
2016,08,25,10,28,23.50
2016,08,25,10,29,23.60
2016,08,25,10,30,23.60
2016,08,25,10,31,23.60
2016,08,25,10,32,23.70
2016,08,25,10,33,23.70
2016,08,25,10,34,23.90
2016,08,25,10,35,24.00
2016,08,25,10,36,24.10
2016,08,25,10,37,24.10
2016,08,25,10,38,24.10
2016,08,25,10,39,24.10
2016,08,25,10,40,24.20
2016,08,25,10,41,24.20
2016,08,25,10,42,24.30
2016,08,25,10,43,24.40
2016,08,25,10,44,24.50
2016,08,25,10,45,24.50
2016,08,25,10,46,24.50
2016,08,25,10,47,24.60
2016,08,25,10,48,24.70
2016,08,25,10,49,24.70
2016,08,25,10,50,24.80
2016,08,25,10,51,24.90
2016,08,25,10,52,24.90
2016,08,25,10,53,24.90
2016,08,25,10,54,24.90
2016,08,25,10,55,24.80
2016,08,25,10,56,24.70
2016,08,25,10,57,24.60
2016,08,25,10,58,24.60
2016,08,25,10,59,24.50
2016,08,25,11,00,24.50
2016,08,25,11,01,24.40
2016,08,25,11,02,24.40
2016,08,25,11,03,24.30
2016,08,25,11,04,24.30
2016,08,25,11,05,24.30
2016,08,25,11,06,24.30
2016,08,25,11,07,24.30
2016,08,25,11,08,24.10
2016,08,25,11,09,24.10
2016,08,25,11,10,23.80
2016,08,25,11,11,23.70
2016,08,25,11,12,23.60
2016,08,25,11,13,23.60
2016,08,25,11,14,23.60
2016,08,25,11,15,23.60
2016,08,25,11,16,23.70
2016,08,25,11,17,23.80
2016,08,25,11,18,23.90
2016,08,25,11,19,23.90
2016,08,25,11,20,23.90
2016,08,25,11,21,23.80
2016,08,25,11,22,23.80
2016,08,25,11,23,23.70
2016,08,25,11,24,23.80
2016,08,25,11,25,23.60
2016,08,25,11,26,23.30
2016,08,25,11,27,23.30
2016,08,25,11,28,23.20
2016,08,25,11,29,23.10
2016,08,25,11,30,22.90
2016,08,25,11,31,22.70
2016,08,25,11,32,22.50
2016,08,25,11,33,22.30
2016,08,25,11,34,22.10
2016,08,25,11,35,22.10
2016,08,25,11,36,22.10
2016,08,25,11,37,22.20
2016,08,25,11,38,22.30
2016,08,25,11,39,22.40
2016,08,25,11,40,22.50
2016,08,25,11,41,22.50
2016,08,25,11,42,22.50
2016,08,25,11,43,22.50
2016,08,25,11,44,22.50
2016,08,25,11,45,22.60
2016,08,25,11,46,22.60
2016,08,25,11,47,22.60
2016,08,25,11,48,22.70
2016,08,25,11,49,22.90
2016,08,25,11,50,22.90
2016,08,25,11,51,22.90
2016,08,25,11,52,23.00
2016,08,25,11,53,23.10
2016,08,25,11,54,23.10
2016,08,25,11,55,23.20
2016,08,25,11,56,23.30
2016,08,25,11,57,23.30
2016,08,25,11,58,23.30
2016,08,25,11,59,23.30
2016,08,25,12,00,23.20
2016,08,25,12,01,23.00
2016,08,25,12,02,22.90
2016,08,25,12,03,22.80
2016,08,25,12,04,22.70
2016,08,25,12,05,22.70
2016,08,25,12,06,22.70
2016,08,25,12,07,22.70
2016,08,25,12,08,22.90
2016,08,25,12,09,22.90
2016,08,25,12,10,23.00
2016,08,25,12,11,23.20
2016,08,25,12,12,23.50
2016,08,25,12,13,23.70
2016,08,25,12,14,23.80
2016,08,25,12,15,23.80
2016,08,25,12,16,23.90
2016,08,25,12,17,24.00
2016,08,25,12,18,24.10
2016,08,25,12,19,24.10
2016,08,25,12,20,24.10
2016,08,25,12,21,24.00
2016,08,25,12,22,23.90
2016,08,25,12,23,23.70
2016,08,25,12,24,23.70
2016,08,25,12,25,23.70
2016,08,25,12,26,23.70
2016,08,25,12,27,23.80
2016,08,25,12,28,23.90
2016,08,25,12,29,24.10
2016,08,25,12,30,24.20
2016,08,25,12,31,24.30
2016,08,25,12,32,24.40
2016,08,25,12,33,24.50
2016,08,25,12,34,24.50
2016,08,25,12,35,24.50
2016,08,25,12,36,24.40
2016,08,25,12,37,24.50
2016,08,25,12,38,24.50
2016,08,25,12,39,24.60
2016,08,25,12,40,24.60
2016,08,25,12,41,24.60
2016,08,25,12,42,24.60
2016,08,25,12,43,24.60
2016,08,25,12,44,24.60
2016,08,25,12,45,24.70
2016,08,25,12,46,24.80
2016,08,25,12,47,24.80
2016,08,25,12,48,24.80
2016,08,25,12,49,24.80
2016,08,25,12,50,25.00
2016,08,25,12,51,25.20
2016,08,25,12,52,25.30
2016,08,25,12,53,25.30
2016,08,25,12,54,25.30
2016,08,25,12,55,25.40
2016,08,25,12,56,25.50
2016,08,25,12,57,25.60
2016,08,25,12,58,25.70
2016,08,25,12,59,25.70
2016,08,25,13,00,25.70
2016,08,25,13,01,25.70
2016,08,25,13,02,25.60
2016,08,25,13,03,25.70
2016,08,25,13,04,25.80
2016,08,25,13,05,25.90
2016,08,25,13,06,26.20
2016,08,25,13,07,26.30
2016,08,25,13,08,26.50
2016,08,25,13,09,26.60
2016,08,25,13,10,26.60
2016,08,25,13,11,26.60
2016,08,25,13,12,26.70
2016,08,25,13,13,26.80
2016,08,25,13,14,26.80
2016,08,25,13,15,27.00
2016,08,25,13,16,27.10
2016,08,25,13,17,27.30
2016,08,25,13,18,27.40
2016,08,25,13,19,27.60
2016,08,25,13,20,27.60
2016,08,25,13,21,27.70
2016,08,25,13,22,27.70
2016,08,25,13,23,27.60
2016,08,25,13,24,27.60
2016,08,25,13,25,27.40
2016,08,25,13,26,27.30
2016,08,25,13,27,27.20
2016,08,25,13,28,27.20
2016,08,25,13,29,27.20
2016,08,25,13,30,27.20
2016,08,25,13,31,27.20
2016,08,25,13,32,27.20
2016,08,25,13,33,27.30
2016,08,25,13,34,27.30
2016,08,25,13,35,27.30
2016,08,25,13,36,27.30
2016,08,25,13,37,27.30
2016,08,25,13,38,27.30
2016,08,25,13,39,27.30
2016,08,25,13,40,27.40
2016,08,25,13,41,27.50
2016,08,25,13,42,27.50
2016,08,25,13,43,27.40
2016,08,25,13,44,27.30
2016,08,25,13,45,27.50
2016,08,25,13,46,27.70
2016,08,25,13,47,27.90
2016,08,25,13,48,28.00
2016,08,25,13,49,28.00
2016,08,25,13,50,27.90
2016,08,25,13,51,27.80
2016,08,25,13,52,27.80
2016,08,25,13,53,27.70
2016,08,25,13,54,27.60
2016,08,25,13,55,27.50
2016,08,25,13,56,27.30
2016,08,25,13,57,27.30
2016,08,25,13,58,27.30
2016,08,25,13,59,27.30
2016,08,25,14,00,27.30
2016,08,25,14,01,27.30
2016,08,25,14,02,27.20
2016,08,25,14,03,27.10
2016,08,25,14,04,26.80
2016,08,25,14,05,26.60
2016,08,25,14,06,26.40
2016,08,25,14,07,26.10
2016,08,25,14,08,25.90
2016,08,25,14,09,25.70
2016,08,25,14,10,25.50
2016,08,25,14,11,25.40
2016,08,25,14,12,25.30
2016,08,25,14,13,25.30
2016,08,25,14,14,25.20
2016,08,25,14,15,25.10
2016,08,25,14,16,25.20
2016,08,25,14,17,25.30
2016,08,25,14,18,25.40
2016,08,25,14,19,25.40
2016,08,25,14,20,25.50
2016,08,25,14,21,25.50
2016,08,25,14,22,25.50
2016,08,25,14,23,25.50
2016,08,25,14,24,25.60
2016,08,25,14,25,25.70
2016,08,25,14,26,25.80
2016,08,25,14,27,25.90
2016,08,25,14,28,26.10
2016,08,25,14,29,26.40
2016,08,25,14,30,26.70
2016,08,25,14,31,26.90
2016,08,25,14,32,27.20
2016,08,25,14,33,27.30
2016,08,25,14,34,27.30
2016,08,25,14,35,27.30
2016,08,25,14,36,27.30
2016,08,25,14,37,27.40
2016,08,25,14,38,27.50
2016,08,25,14,39,27.60
2016,08,25,14,40,27.80
2016,08,25,14,41,27.80
2016,08,25,14,42,27.90
2016,08,25,14,43,27.90
2016,08,25,14,44,27.90
2016,08,25,14,45,27.80
2016,08,25,14,46,27.70
2016,08,25,14,47,27.70
2016,08,25,14,48,27.50
2016,08,25,14,49,27.40
2016,08,25,14,50,27.40
2016,08,25,14,51,27.30
2016,08,25,14,52,27.20
2016,08,25,14,53,26.90
2016,08,25,14,54,26.80
2016,08,25,14,55,26.60
2016,08,25,14,56,26.40
2016,08,25,14,57,26.10
2016,08,25,14,58,25.90
2016,08,25,14,59,25.70
2016,08,25,15,00,25.60
2016,08,25,15,01,25.60
2016,08,25,15,02,25.60
2016,08,25,15,03,25.50
2016,08,25,15,04,25.30
2016,08,25,15,05,25.30
2016,08,25,15,06,25.40
2016,08,25,15,07,25.50
2016,08,25,15,08,25.50
2016,08,25,15,09,25.60
2016,08,25,15,10,25.60
2016,08,25,15,11,25.70
2016,08,25,15,12,25.80
2016,08,25,15,13,25.80
2016,08,25,15,14,25.80
2016,08,25,15,15,25.60
2016,08,25,15,16,25.60
2016,08,25,15,17,25.60
2016,08,25,15,18,25.60
2016,08,25,15,19,25.60
2016,08,25,15,20,25.70
2016,08,25,15,21,25.90
2016,08,25,15,22,25.90
2016,08,25,15,23,26.00
2016,08,25,15,24,26.00
2016,08,25,15,25,26.00
2016,08,25,15,26,26.10
2016,08,25,15,27,26.20
2016,08,25,15,28,26.30
2016,08,25,15,29,26.40
2016,08,25,15,30,26.50
2016,08,25,15,31,26.60
2016,08,25,15,32,26.60
2016,08,25,15,33,26.60
2016,08,25,15,34,26.80
2016,08,25,15,35,26.80
2016,08,25,15,36,26.80
2016,08,25,15,37,26.70
2016,08,25,15,38,26.70
2016,08,25,15,39,26.90
2016,08,25,15,40,27.00
2016,08,25,15,41,27.10
2016,08,25,15,42,27.30
2016,08,25,15,43,27.30
2016,08,25,15,44,27.30
2016,08,25,15,45,27.40
2016,08,25,15,46,27.40
2016,08,25,15,47,27.40
2016,08,25,15,48,27.40
2016,08,25,15,49,27.30
2016,08,25,15,50,27.30
2016,08,25,15,51,27.20
2016,08,25,15,52,26.90
2016,08,25,15,53,26.70
2016,08,25,15,54,26.60
2016,08,25,15,55,26.40
2016,08,25,15,56,26.20
2016,08,25,15,57,26.00
2016,08,25,15,58,25.80
2016,08,25,15,59,25.60
2016,08,25,16,00,25.50
2016,08,25,16,01,25.40
2016,08,25,16,02,25.30
2016,08,25,16,03,25.20
2016,08,25,16,04,25.30
2016,08,25,16,05,25.40
2016,08,25,16,06,25.40
2016,08,25,16,07,25.50
2016,08,25,16,08,25.50
2016,08,25,16,09,25.70
2016,08,25,16,10,25.90
2016,08,25,16,11,26.00
2016,08,25,16,12,26.20
2016,08,25,16,13,26.30
2016,08,25,16,14,26.40
2016,08,25,16,15,26.50
2016,08,25,16,16,26.60
2016,08,25,16,17,26.70
2016,08,25,16,18,26.90
2016,08,25,16,19,27.20
2016,08,25,16,20,27.30
2016,08,25,16,21,27.40
2016,08,25,16,22,27.30
2016,08,25,16,23,27.30
2016,08,25,16,24,27.30
2016,08,25,16,25,27.50
2016,08,25,16,26,27.60
2016,08,25,16,27,27.70
2016,08,25,16,28,27.90
2016,08,25,16,29,28.10
2016,08,25,16,30,28.30
2016,08,25,16,31,28.50
2016,08,25,16,32,28.70
2016,08,25,16,33,28.90
2016,08,25,16,34,29.00
2016,08,25,16,35,29.10
2016,08,25,16,36,29.20
2016,08,25,16,37,29.20
2016,08,25,16,38,29.30
2016,08,25,16,39,29.30
2016,08,25,16,40,29.30
2016,08,25,16,41,29.40
2016,08,25,16,42,29.50
2016,08,25,16,43,29.50
2016,08,25,16,44,29.60
2016,08,25,16,45,29.70
2016,08,25,16,46,29.70
2016,08,25,16,47,29.70
2016,08,25,16,48,29.70
2016,08,25,16,49,29.70
2016,08,25,16,50,29.80
2016,08,25,16,51,29.90
2016,08,25,16,52,30.00
2016,08,25,16,53,30.10
2016,08,25,16,54,30.30
2016,08,25,16,55,30.40
2016,08,25,16,56,30.60
2016,08,25,16,57,30.70
2016,08,25,16,58,30.70
2016,08,25,16,59,30.70
2016,08,25,17,00,30.60
2016,08,25,17,01,30.40
2016,08,25,17,02,30.30
2016,08,25,17,03,30.30
2016,08,25,17,04,30.10
2016,08,25,17,05,30.00
2016,08,25,17,06,29.90
2016,08,25,17,07,29.70
2016,08,25,17,08,29.70
2016,08,25,17,09,29.60
2016,08,25,17,10,29.50
2016,08,25,17,11,29.40
2016,08,25,17,12,29.30
2016,08,25,17,13,29.20
2016,08,25,17,14,29.10
2016,08,25,17,15,29.10
2016,08,25,17,16,29.00
2016,08,25,17,17,28.90
2016,08,25,17,18,29.00
2016,08,25,17,19,29.10